SCP
0 0 0 0 0 0 0 0 0 0 0 0 0 0 0 0 0 0 0 0 0 0 0 0 0 0 0 0 0 0 0 0 0 0 0 0 0 0 0 0 0 0 0 0
0 0 0 0 0 0 0 0 0 0 0 0 0 0 0 0 0 0 0 0 0 0 0 0 0 0 0 0 0 0 0 0 0 0 0 0 0 0 0 0 0 0 0 0
0 0 0 0 0 0 0 0 0 0 0 0 0 0 0 0 0 0 0 0 0 0 0 0 0 0 0 0 0 0 0 0 0 0 0 0 0 0 0 0 0 0 0 0
0 0 0 0 0 0 0 0 0 0 0 0 0 0 0 0 0 0 0 0 0 0 0 0 0 0 0 0 0 0 0 0 0 0 0 0 0 0 0 0 0 0 0 0
0 0 0 0 0 0 0 0 0 0 0 0 0 0 0 0 0 0 0 0 0 0 0 0 0 0 0 0 0 0 0 0 0 0 0 0 0 0 0 0 0 0 0 0
0 0 0 0 0 0 0 0 0 0 0 0 0 0 0 -0 0 0 0 0 0 0 0 0 0 0 0 0 0 0 0 0 0 0 0 0 0 0 0 0 0 0 0 0
0 0 0 0 0 0 0 0 0 0 0 0 0 0 0 -0 0 0 0 0 0 0 0 0 0 0 0 0 0 0 0 0 0 0 0 0 0 0 0 0 0 0 0 0
0 0 0 0 0 0 0 0 0 0 0 0 0 0 0 0 0 0 0 0 0 0 0 0 0 0 0 0 0 0 0 0 0 0 0 0 0 0 0 0 0 0 0 0
0 0 0 0 0 0 0 0 0 0 0 0 0 0 0 0 0 0 0 0 0 0 0 0 0 0 0 0 0 0 0 0 0 0 0 0 0 0 0 0 0 0 0 0
0 0 0 0 0 0 0 0 0 0 0 0 0 0 0 0 0 0 0 0 0 0 0 0 0 0 0 0 0 0 0 0 0 0 0 0 0 0 0 0 0 0 0 0
0 0 0 0 0 0 0 0 0 0 0 0 0 0 0 0 0 0 0 0 0 0 0 0 0 0 0 0 0 0 0 0 0 0 0 0 0 0 0 0 0 0 0 0
0 0 0 0 0 0 0 0 0 0 0 0 0 0 0 0 0 0 0 0 0 0 0 0 0 0 0 0 0 0 0 0 0 0 0 0 0 0 0 0 0 0 0 0
0 0 0 0 0 0 0 0 0 0 0 0 0 0 0 0 0 0 0 0 0 0 0 0 0 0 0 0 0 0 0 0 0 0 0 0 0 0 0 0 0 0 0 0
0 0 0 0 0 0 0 0 0 0 0 0 0 0 0 0 -0 0 0 0 0 0 0 0 0 0 0 0 0 0 0 0 0 0 0 0 0 0 0 0 0 0 0 0
0 0 0 0 0 0 0 0 0 0 0 0 0 0 0 0 -0 -0 0 0 0 0 0 0 0 0 0 0 0 0 0 0 0 0 0 0 0 0 0 0 0 0 0 0
0 0 0 0 0 0 0 0 0 0 0 0 0 0 0 0 0 0 0 0 0 0 0 0 0 0 0 0 0 0 0 0 0 0 0 0 0 0 0 0 0 0 0 0
0 0 0 0 0 0 0 0 0 0 0 0 0 0 0 0 0 0 0 0 0 0 0 0 0 0 0 0 0 0 0 0 0 0 0 0 0 0 0 0 0 0 0 0
0 0 0 0 0 0 0 0 -0 -0 -0 0 0 0 0 0 0 0 0 0 0 0 0 0 0 0 0 0 0 0 0 0 0 0 0 0 0 0 0 0 0 0 0 0
0 0 0 0 0 0 0 0 -0 -0 -0 0 0 0 0 0 0 0 0 0 0 0 0 0 0 0 0 0 0 0 0 0 0 0 0 0 0 0 0 0 0 0 0 0
0 0 0 0 0 0 -0 0 0 0 0 -0 -0 -0 0 0 0 0 0 0 0 0 0 0 0 0 0 0 0 0 0 0 0 0 0 0 0 0 0 0 0 0 0 0
0 0 0 0 0 0 0 0 0 0 0 -0 -0 -0 0 0 0 0 0 0 0 0 0 0 0 0 0 0 0 0 0 0 0 0 0 0 0 0 0 0 0 0 0 0
0 0 0 0 0 0 0 0 0 0 0 -0 -0 -0 0 0 0 0 0 0 0 0 0 0 0 0 0 0 0 0 0 0 0 0 0 0 0 0 0 0 0 0 0 0
0 0 0 0 0 0 0 0 0 0 0 0 0 0 0 0 0 0 0 0 0 0 0 0 0 0 0 0 0 0 0 0 0 0 0 0 0 0 0 0 0 0 0 0
0 0 -0 0 0 0 0 0 0 0 0 0 0 0 0 0 0 0 0 0 0 0 0 0 0 0 0 0 0 0 0 0 0 0 0 0 0 0 0 0 0 0 0 0
0 0 -0 0 0 0 0 0 0 0 0 0 0 0 0 0 0 0 0 0 0 0 0 0 0 0 0 0 0 0 0 0 0 0 0 0 0 0 0 0 0 0 0 0
0 0 -0 0 0 0 0 0 0 0 0 0 0 0 0 0 0 0 0 0 0 0 0 0 0 0 0 0 0 0 0 0 0 0 0 0 0 0 0 0 0 0 0 0
Wind_Speed
3 4 0 2 2 3 2 2 3 4 2 1 2 5 6 4 1 2 3 2 3 4 3 2 2 2 2 2 3 2 1 1 0 0 1 0 1 1 1 1 0 0 0 0
3 1 3 2 1 1 2 2 3 3 1 1 2 5 5 3 2 2 3 3 3 3 3 3 3 2 2 2 2 2 1 1 1 1 1 1 1 1 1 1 1 0 0 0
2 2 1 1 0 1 2 3 3 3 4 1 1 5 3 2 1 2 2 2 2 2 2 3 3 3 2 2 3 3 2 2 1 1 0 0 0 0 1 1 1 1 1 0
0 2 0 0 1 0 3 2 2 2 2 2 1 4 5 3 3 3 3 3 3 3 2 2 3 3 3 3 3 2 2 2 1 1 1 2 1 1 1 1 1 1 1 0
1 1 1 0 2 1 3 2 1 1 1 2 1 1 7 1 3 5 4 4 4 3 2 2 3 3 3 2 2 2 2 2 1 1 1 2 1 1 0 0 0 1 1 0
1 1 0 1 2 0 1 1 2 2 2 2 2 2 6 2 4 4 4 4 4 3 3 2 3 3 3 3 2 2 2 3 2 1 1 1 2 1 1 1 0 1 1 0
3 2 2 1 2 3 3 3 4 5 3 4 1 2 7 4 3 4 5 4 4 3 2 3 3 4 4 3 3 3 2 3 2 1 1 1 2 3 3 2 2 1 0 0
1 3 2 1 1 1 0 2 4 3 3 4 2 5 7 3 3 3 3 3 3 4 3 3 3 3 3 4 3 3 3 3 3 2 1 1 2 2 2 2 2 1 1 1
2 3 2 2 1 3 2 1 2 3 0 2 5 6 7 2 4 5 5 5 5 5 4 4 4 3 3 4 4 4 3 3 3 2 1 1 1 1 2 2 1 1 1 0
3 2 3 2 1 2 1 3 3 2 1 3 5 5 5 5 5 5 5 5 5 5 5 5 4 4 4 3 4 4 3 3 3 2 1 1 1 1 2 2 2 1 1 1
2 2 3 2 1 2 1 1 2 2 2 3 4 7 4 4 4 4 5 5 5 5 5 5 4 4 4 4 3 4 3 3 2 1 1 0 0 0 1 1 1 1 1 1
1 3 2 4 2 1 3 3 4 3 3 3 3 9 3 3 3 3 5 5 5 4 4 4 4 4 4 4 4 4 3 3 3 1 1 0 0 1 1 1 1 1 1 1
3 3 2 4 2 1 1 2 2 3 2 3 4 9 3 3 5 5 5 5 5 5 5 4 4 4 4 4 4 4 4 3 3 2 1 1 1 0 1 1 1 1 1 1
3 3 5 6 5 3 3 4 3 4 4 5 8 10 8 7 6 7 5 5 4 4 4 4 4 4 4 4 4 4 5 4 3 2 1 0 1 0 0 1 1 1 1 1
3 2 3 5 5 3 5 5 5 7 8 7 8 8 11 6 6 6 5 5 5 5 5 4 4 4 4 5 5 5 5 4 3 2 1 1 1 1 1 1 0 1 1 0
2 1 1 4 3 4 6 7 7 8 7 8 8 11 7 4 3 4 5 5 5 5 5 5 5 5 5 4 5 5 5 4 3 2 1 1 1 1 0 0 1 1 0 0
2 2 0 4 5 4 7 8 8 6 6 7 9 9 4 4 5 6 6 5 5 5 5 6 5 5 5 5 4 4 4 4 3 2 1 1 1 1 1 1 1 1 0 0
4 3 1 1 3 5 7 2 5 6 7 8 7 6 4 6 6 6 5 4 5 5 5 5 5 5 5 5 4 4 3 3 2 2 2 1 1 0 0 1 0 0 0 0
3 5 3 1 3 10 8 3 4 5 7 6 7 6 4 3 4 5 3 3 4 5 4 4 4 4 4 5 4 3 3 3 2 2 2 2 1 0 0 0 0 0 0 0
3 3 3 2 3 8 6 2 1 2 7 4 4 5 3 1 3 6 3 3 4 4 3 4 4 4 4 4 3 2 2 2 3 3 2 2 1 0 1 1 0 0 0 0
2 1 3 4 6 11 6 2 2 2 7 4 3 4 4 4 5 5 3 3 3 3 3 3 3 3 4 4 3 2 2 2 3 3 2 2 1 0 0 0 1 1 1 1
7 6 6 5 5 11 3 4 6 7 4 3 3 3 3 4 4 3 3 3 2 3 3 3 3 4 4 3 2 2 3 3 2 2 2 2 1 1 0 1 1 1 1 1
8 9 7 10 10 5 4 6 5 3 3 4 3 3 2 3 4 3 3 3 2 2 2 2 2 3 4 4 2 2 3 3 2 2 2 2 2 1 1 1 1 1 1 1
5 3 4 6 10 7 7 6 5 4 5 5 4 3 2 3 4 3 3 3 3 2 2 2 2 3 4 4 3 2 2 2 2 2 2 2 2 2 2 1 1 1 1 0
7 6 5 8 8 6 7 7 6 5 4 4 3 3 3 3 3 3 3 3 3 3 2 1 1 2 3 4 4 3 2 2 1 1 1 1 1 1 1 1 1 1 0 1
7 9 9 9 7 6 6 5 5 4 4 4 3 3 2 3 3 3 3 3 2 2 2 2 2 2 3 3 3 3 2 1 1 1 1 1 1 1 1 1 2 3 2 3
Wind_Direction
26 67 60 248 224 223 205 221 266 278 280 327 265 274 286 297 310 277 284 285 291 285 302 333 324 323 343 347 352 319 314 320 354 158 170 235 278 306 317 288 244 233 254 264
44 346 254 223 232 210 200 248 273 289 290 279 276 276 271 274 250 236 260 280 284 305 339 344 340 345 333 319 322 324 307 316 300 257 208 209 229 254 280 298 290 256 226 249
165 247 261 143 210 0 280 224 253 282 326 360 295 295 267 277 290 301 283 278 295 292 298 322 344 340 326 319 305 317 300 289 273 276 219 112 26 358 8 329 309 320 320 284
235 283 314 48 318 324 278 270 256 270 333 308 9 289 284 262 302 318 309 314 310 307 311 331 335 326 320 315 309 296 305 292 275 223 192 196 201 228 239 249 279 314 328 318
280 327 75 304 289 266 249 298 279 266 197 310 328 237 286 300 294 295 296 299 295 293 304 319 316 307 321 322 311 293 315 306 288 246 202 202 207 233 231 95 1 342 343 3
280 330 58 256 326 233 241 27 44 50 65 295 248 198 280 244 248 285 292 288 288 295 301 309 320 333 338 337 336 316 321 321 311 282 200 201 198 195 167 150 160 313 315 357
345 344 347 28 26 17 48 74 23 359 354 262 274 232 258 260 247 246 266 278 290 301 309 319 336 340 330 326 321 309 312 319 309 291 227 206 206 197 185 186 183 206 275 303
24 300 308 355 167 199 258 123 149 216 250 289 322 251 262 278 278 273 286 311 336 339 330 320 312 310 317 312 307 302 297 304 299 279 256 225 210 202 190 192 184 188 216 234
163 265 324 334 314 134 132 165 167 142 251 284 276 282 297 312 330 338 343 346 333 324 318 314 318 320 321 316 306 295 293 303 294 269 249 236 217 195 183 191 175 181 196 211
159 245 302 317 58 34 129 145 96 116 190 278 288 274 266 287 298 316 322 316 310 318 323 320 318 320 318 312 312 313 304 294 287 271 248 228 238 203 184 178 173 177 176 162
136 151 310 3 187 203 82 92 106 122 171 185 276 274 238 241 267 278 288 298 304 310 312 314 314 319 321 325 329 324 316 313 309 305 300 312 299 194 165 167 177 168 160 161
136 125 262 260 258 187 167 181 157 166 240 206 231 271 286 258 281 293 297 304 311 311 313 317 318 332 335 332 330 324 322 320 318 321 315 307 57 101 129 171 159 145 153 173
137 116 20 342 340 357 237 210 186 151 148 191 213 266 306 331 323 312 303 309 319 323 329 333 335 338 332 329 327 321 321 321 328 342 358 15 26 115 138 188 145 150 153 145
111 134 182 211 243 221 240 239 199 168 197 228 232 260 290 305 309 310 309 309 314 317 323 328 328 330 330 327 322 323 323 327 336 353 3 352 301 235 193 182 153 154 150 152
107 192 234 256 271 249 242 244 218 211 215 222 249 257 271 278 281 291 300 308 316 319 321 321 322 324 329 331 327 329 327 328 339 350 336 303 330 46 51 39 108 125 138 161
94 170 285 295 294 265 267 259 238 235 237 243 266 273 272 279 290 297 298 299 301 305 309 315 321 323 324 322 320 324 321 322 335 330 298 321 13 43 65 52 57 74 90 90
134 137 132 283 311 329 276 241 214 219 218 208 236 255 286 293 282 278 280 282 280 294 306 311 311 309 310 309 308 310 312 319 329 327 322 336 359 18 3 38 59 61 78 103
151 138 148 302 2 258 249 222 201 220 240 226 245 261 259 264 280 277 262 258 276 292 297 300 304 310 312 312 313 317 322 326 331 337 337 331 337 321 32 63 66 21 91 130
160 146 139 152 262 278 288 255 190 207 265 233 238 262 282 307 319 290 257 254 265 273 283 289 295 302 309 312 311 322 325 332 332 334 329 317 295 283 98 200 271 280 71 15
84 114 136 159 223 255 262 262 209 116 284 257 217 242 254 53 310 286 296 291 290 298 304 308 314 319 317 316 321 332 325 334 326 319 314 314 292 219 230 245 287 33 74 279
129 133 177 198 236 264 258 223 114 174 262 290 228 230 210 213 238 274 299 301 298 304 312 321 325 323 315 319 333 337 330 313 313 324 332 338 338 301 245 91 61 47 38 36
181 179 193 175 220 256 208 139 190 230 277 281 260 249 237 255 280 293 296 295 308 321 326 332 340 333 330 335 346 337 317 315 333 351 355 349 348 340 42 91 80 76 77 58
205 196 192 199 221 253 196 212 235 240 259 264 260 268 247 267 277 288 289 288 293 298 308 323 333 331 334 340 348 324 316 337 358 20 3 352 354 360 41 96 101 86 91 87
241 191 202 253 261 257 253 253 255 248 252 263 260 257 233 252 270 282 282 285 291 296 302 324 340 331 325 332 338 322 325 347 24 26 11 14 28 27 38 52 68 81 92 111
220 181 208 253 269 287 267 240 243 255 262 271 273 254 235 233 260 263 270 275 279 293 302 292 284 294 305 323 328 329 339 8 25 22 27 22 22 38 50 40 29 18 354 244
197 186 190 229 230 216 255 249 223 227 247 251 254 271 263 229 246 259 268 271 274 281 291 298 299 299 306 317 318 323 340 9 31 14 14 11 9 23 49 58 28 17 9 2